Вернуться в каталог

STARLINK-35367

АктивенСвязьVLEO
NORAD 65883·PAYLOAD·🇺🇸 United States

Запущен Oct 7, 2025 с Cape Canaveral Space Force Station

Loading…

Ближайшие Пролёты (ближайшие 24 часа)

TLE

СвежийSource: CelesTrak SupGP

Эпоха: Sep 15, 2026, 03:48 UTC

1 65883C 25224B   26258.15881944 -.00057508  00000+0 -16994-2 0  2583
2 65883  53.1578 206.9018 0001339  85.6513 314.0660 15.34413883    12

Отслеживайте STARLINK-35367 в реальном времени с AllMySat

Download on the App Store